sat.trackr.live / text

‹ back to catalog

ONEWEB-0157

NORAD 48055 · 2021-025P

PAYLOAD ACTIVE UNKNOWN

§ Identity

Operator
Country
UK
Launch date
2021-03-25
Launch site
VOSTO
Launch vehicle
Mass (kg)
RCS (m²)

Purposes: comms

External: N2YO · Heavens-Above · Gunter

§ Orbital elements

Epoch: 2026-09-19T20:13:08.512896Z

Period
109.63 min
Inclination
87.8912°
Eccentricity
0.0001491
Mean motion
13.13471365 rev/d
Perigee alt
1,208.6 km
Apogee alt
1,210.9 km
Semi-major
7,587.9 km
B*
-6.0795e-4
RAAN
301.3911°
Arg perigee
98.9942°
Mean anomaly
261.1356°
Rev number
26,599

§ Raw data

ONEWEB-01571 48055U 21025P   26262.84245964 -.00000209  00000+0 -60795-3 0  99942 48055  87.8912 301.3911 0001491  98.9942 261.1356 13.13471365265992

JSON: /api/v1/satellites/48055 · /tle

For live sub-satellite position, see the globe view (requires WebGL).

§ Visibility from observer

Set your observer location to see the next 7 days of passes ≥ 10°. The values pass through the URL so the page stays shareable.

No JS? Fill the form by hand. The geolocation button needs JavaScript.